Navigation: Drive List Submit Your Drive Statistics Feedback Help Privacy About
 
This list is created by those who submitted their information to this page. You cannot expect 100% accuracy, but if there's many entries of the same drive chances are the majority is correct. If the drive you want to submit is already in the list, don't hasitate to submit since you are only confirming that the particular drive work/doesn't work. Recommended screen resolution: 1024x768 or higher.

In the beginning I only included the entries from the xbox-scene forum thread that had a valid model number, or where the model number could be guessed. I have skipped a lot of WD 120GB and Maxtor drives because they didn't provide the model number.

2005-11-18: If you accidentally locked a drive with a wrong password or lost the matching Xbox eeprom to unlock the drive, there's now a new service online that will allow you (for a small fee) to force unlock the hard drive and return it back to normal state. Most of the hard drives from Maxtor, Western Digital, Seagate and Samsung is supported. If you you're serious about getting your data back or the drive working again, you should take a look AFF Repair Station.

2006-05-28: It's been a while since the last news update. Whenever I see a bug or error I update the codebase, and in the last month I've fixed some submission errors, edit auth faults and recently made the sorting and filtering system the way it should be. There is still a problem with invalid submissions in the database and I encourage you to report them so I can remove the entries. Thanks to those who've submitted to the database.

-

Total entries: 3201 Locking: 2476 (77%)
Not locking: 725 (22%)
Most lockable brand: Western Digital
Most lockable drive serie: WD Caviar Blue
Most lockable drive: Seagate ST3200822A
Most popular lockable drive size: 120 GB
Most popular lockable drive speed: 7200 RPM
Most popular locking program: ConfigMagic
Search bar Show all
Added Brand Model no. Size RPM Buffer Locking Program XBOX Posted by Comment #
1. 2004-11-02 Maxtor DIAMONDMAX PLUS 10 300 GB 7200 16 MB Yes Evox v1.6 Angel None 1
2. 2004-11-17 Maxtor 6B250R0 250 GB 7200 16 MB Yes EVOX v1.6 lilepic_02... None 0
3. 2004-11-28 Maxtor 6B300R0 OR L01R300 300 GB 7200 16 MB Yes ConfigM... v1.4 Scuba Still wo... 0
4. 2004-12-04 Maxtor MX300G6B300R0 300 GB 7200 16 MB Yes ALL XBO... v1.4 RUNNEROOO Subtotal... 2
5. 2005-01-17 Maxtor LO1R300 300 GB 7200 16 MB Yes X3 v1.4 jmastera None 0
6. 2005-01-18 Maxtor L01R250 250 GB 7200 16 MB Yes Slayer\... v1.6 SleepyBoy Drive wo... 4
7. 2005-01-25 Maxtor 6B200R0 200 GB 7200 16 MB Yes ConfigM... v1.6b ByTheWay None 0
8. 2005-02-21 Maxtor L01R250 250 GB 7200 16 MB Yes xboxhdm... v1.6 purecat HDD Temp... 0
9. 2005-03-03 Maxtor DIAMONDMAX 10 300 GB 7200 16 MB Yes Evox, c... v1.0 kangfat None 1
10. 2005-04-01 Maxtor 6B250R0 250 GB 7200 16 MB Yes SmartXX... v1.0 kolavar Newegg.c... 0
11. 2005-04-11 Maxtor 6B300R6121 300 GB 7200 16 MB Yes Xecuter... v1.6 Darkpaw Barely a... 0
12. 2005-04-23 Maxtor L01R250 250 GB 7200 16 MB Yes xboxhdm... v1.6 dan_the_ma... None 0
13. 2005-06-14 Maxtor 6B250R0 250 GB 7200 16 MB Yes Evox v1.6 Chad None 0
14. 2005-06-19 Maxtor 6B200R0 200 GB 7200 16 MB Yes n/a v1.0 Flux103 AWESOME,... 1
15. 2005-08-20 Maxtor 6B250R0 250 GB 7200 16 MB Yes X3 Conf... v1.6 Silent Bob... None 0
16. 2005-09-05 Maxtor 6L200R0 200 GB 7200 16 MB Yes Xbox Me... v1.4 SliceN Works fl... 0
17. 2005-09-09 Maxtor 6L300R0 300 GB 7200 16 MB Yes HDlock v1.0 Pimp2xg Locked g... 1
18. 2005-09-14 Maxtor 6B250R0 250 GB 7200 16 MB Yes Xenium ... v1.6b dandelion Sucks! ... 0
19. 2005-09-19 Maxtor 6L250R0 250 GB 7200 16 MB Yes Config ... v1.4 Silsila Locks an... 0
20. 2005-09-23 Maxtor 6L300RO 300 GB 7200 16 MB Yes smartxx... v1.1 whazilla ... set ... 0
21. 2005-10-24 Maxtor L01R250 250 GB 7200 16 MB Yes config ... Unk. Ian None 0
22. 2005-11-01 Maxtor 6L250R0 250 GB 7200 16 MB Yes SLAYER v1.6 dewalty None 0
23. 2005-11-11 Maxtor 6L300R0 300 GB 7200 16 MB Yes evox v1.0 ghost None 0
24. 2005-11-12 Maxtor 6L250R0 250 GB 7200 16 MB Yes EvoX So... v1.6 ^GalaX^ Fast, si... 0
25. 2005-11-21 Maxtor 6L300R0 300 GB 7200 16 MB Yes Slayer v1.6b Gainestr This Dri... 0
26. 2005-11-26 Maxtor 7B250R0 250 GB 7200 16 MB Yes XBOXHDM... v1.6 dp84onca Great dr... 0
27. 2005-12-02 Maxtor 6L250R0 250 GB 7200 16 MB Yes Config ... v1.2 Marocco It tooks... 2
28. 2005-12-03 Maxtor 6B250R0 250 GB 7200 16 MB Yes xboxhdm... v1.6 pietjepuk Easy to ... 0
29. 2005-12-04 Maxtor 7L250R0 250 GB 7200 16 MB No not tes... v1.0 tictac i did no... 0
30. 2005-12-06 Seagate ST3300631A 300 GB 7200 16 MB Yes N/A v1.6 modified None 0
31. 2005-12-10 Maxtor 6L300R0 300 GB 7200 16 MB Yes X3 Conf... v1.4 MonsterTy None 0
32. 2005-12-27 Maxtor 6L250R0 250 GB 7200 16 MB Yes xboxhdm... v1.0 RepZ works pe... 0
33. 2006-01-06 Seagate ST3400632A 400 GB 7200 16 MB Yes Config ... v1.3 aboredprog... None 0
34. 2006-01-16 Seagate ST3500641A 500 GB 7200 16 MB Yes evoX Unk. ALZ None 0
35. 2006-01-16 Maxtor 6L200RO 200 GB 7200 16 MB Yes Evoluti... v1.6b PALNTSC None 0
36. 2006-01-17 Maxtor 6L300R0 300 GB 7200 16 MB Yes Evox v1.0 Purewet None 0
37. 2006-01-21 Seagate ST3300831A 300 GB 7200 16 MB Yes X3 BIOS... v1.6b coolzero For me, ... 0
38. 2006-01-25 Maxtor 6L300R0 300 GB 7200 16 MB Yes X3CL v1.6 None None 0
39. 2006-01-25 Maxtor 6L300R0 300 GB 7200 16 MB Yes X3CL v1.2 None None 0
40. 2006-01-31 Seagate ST3400632A 400 GB 7200 16 MB Yes xboxhdm... v1.6 UberHax0r worked p... 2
41. 2006-02-01 Maxtor L01R3 00 300 GB 7200 16 MB Yes XBHDM v1.6 ROADKILL a... the driv... 0
42. 2006-02-11 Seagate ST3300631A-RK 300 GB 7200 16 MB Yes Xecuter... v1.6 blankizbak... A really... 0
43. 2006-02-13 Maxtor 6L250R0 250 GB 7200 16 MB Yes XeniumO... v1.6 johnnyrico... works pe... 1
44. 2006-02-19 Seagate ST3300622A 300 GB 7200 16 MB Yes Evox v1.6b Eyes_only None 0
45. 2006-02-24 Maxtor 6L300R0 300 GB 7200 16 MB Yes ConfigM... v1.1 MercutTio If you&a... 0
46. 2006-02-25 Maxtor 6L250R0 250 GB 7200 16 MB No Tried M... v1.6 Maertz Evox And... 0
47. 2006-03-06 Seagate ST3300631A 300 GB 7200 16 MB Yes xenium v1.0 M$lave Xenium s... 0
48. 2006-03-17 Maxtor 6L250R0 250 GB 7200 16 MB No Tried m... v1.6 TropiX Evox And... 1
49. 2006-03-23 Maxtor 6H500R0 500 GB 7200 16 MB Yes X3 conf... v1.0 Ozn3rol FTP tran... 4
50. 2006-03-26 Western Digital WD2000JB 200 GB 7200 16 MB Yes xbox hd... v1.6 GoA None 0
 Page 1 of 5 Entries returned: 222   1 2 3 4 5 Next > Last >> 
 
  • Click on the particular brand, model number, size or status to filter out all drives that has the same data.
  • Sort the columns by clicking on the labels on the top grey bar, a second click descends the list.
  • Use the search bar to make specific searches, i.e. show all Seagate disks that's 120 GB and has 8 MB cache.
 


Submit your hard drive

Read this before you post
 
Brand
Other brand:
Model number
Model name / serie
Drive size GB
RPM
Other RPM:
Buffersize (in MB) MB (0.1/0.2/0.5/1/2/8/16 MB)
Firmware version
Manufacture date YYYY-MM-DD
Lockable
Program(s)
XBOX version
Your name/nick
Your e-mail
Show e-mail publicly
Verification code Code:
Additional comments / Error messages / Problems
* BOLD = Required